| time (UTC) | temp F | wind direction | speed MPH | gust MPH | rain 1hr in | rain 24hr in | rain mn in | humidity % | barometer mb |
| 20260831134645 | 73 | 333 | 0.0 | 4.0 | 0.00 | 0.00 | 0.00 | 45 | 1017.9 |
| 20260831133136 | 71 | 314 | 1.0 | 3.0 | 0.00 | 0.00 | 0.00 | 47 | 1017.6 |
| 20260831131653 | 70 | 355 | 0.0 | 0.0 | 0.00 | 0.00 | 0.00 | 53 | 1017.2 |
| 20260831130123 | 72 | 239 | 0.0 | 1.0 | 0.00 | 0.00 | 0.00 | 47 | 1017.0 |
| 20260831124639 | 74 | 161 | 0.0 | 0.0 | 0.00 | 0.00 | 0.00 | 44 | 1016.9 |
| 20260831123132 | 74 | 170 | 0.0 | 1.0 | 0.00 | 0.00 | 0.00 | 44 | 1016.7 |
| 20260831121649 | 74 | 135 | 0.0 | 0.0 | 0.00 | 0.00 | 0.00 | 43 | 1016.5 |
| 20260831120120 | 75 | 167 | 0.0 | 0.0 | 0.00 | 0.00 | 0.00 | 43 | 1016.5 |
| 20260831114631 | 77 | 161 | 0.0 | 4.0 | 0.00 | 0.00 | 0.00 | 40 | 1016.6 |
| 20260831113148 | 74 | 199 | 0.0 | 1.0 | 0.00 | 0.00 | 0.00 | 43 | 1016.6 |
| 20260831111639 | 72 | 292 | 0.0 | 1.0 | 0.00 | 0.00 | 0.00 | 47 | 1016.7 |
| 20260831110156 | 74 | 265 | 0.0 | 0.0 | 0.00 | 0.00 | 0.00 | 44 | 1016.6 |
| 20260831104628 | 75 | 225 | 0.0 | 0.0 | 0.00 | 0.00 | 0.00 | 43 | 1016.6 |
| 20260831103141 | 74 | 145 | 0.0 | 1.0 | 0.00 | 0.00 | 0.00 | 43 | 1016.5 |
| 20260831101635 | 73 | 123 | 0.0 | 0.0 | 0.00 | 0.00 | 0.00 | 41 | 1016.7 |
| 20260831100129 | 73 | 123 | 0.0 | 0.0 | 0.00 | 0.00 | 0.00 | 39 | 1016.5 |
| 20260831094625 | 74 | 256 | 0.0 | 1.0 | 0.00 | 0.00 | 0.00 | 37 | 1016.7 |
| 20260831093158 | 77 | 88 | 0.0 | 6.0 | 0.00 | 0.00 | 0.00 | 33 | 1016.7 |
| 20260831091629 | 75 | 133 | 0.0 | 1.0 | 0.00 | 0.00 | 0.00 | 36 | 1016.7 |
| 20260831090146 | 76 | 338 | 0.0 | 1.0 | 0.00 | 0.00 | 0.00 | 34 | 1016.6 |
| 20260831084636 | 76 | 83 | 0.0 | 0.0 | 0.00 | 0.00 | 0.00 | 35 | 1016.6 |
| 20260831083133 | 77 | 119 | 0.0 | 1.0 | 0.00 | 0.00 | 0.00 | 34 | 1016.5 |
| 20260831081623 | 78 | 61 | 0.0 | 3.0 | 0.00 | 0.00 | 0.00 | 31 | 1016.4 |
| 20260831080121 | 77 | 69 | 0.0 | 1.0 | 0.00 | 0.00 | 0.00 | 34 | 1016.5 |
| 20260831074632 | 79 | 67 | 0.0 | 1.0 | 0.00 | 0.00 | 0.00 | 31 | 1016.7 |
| 20260831073124 | 80 | 251 | 0.0 | 4.0 | 0.00 | 0.00 | 0.00 | 29 | 1016.6 |
| 20260831071621 | 84 | 154 | 0.0 | 4.0 | 0.00 | 0.00 | 0.00 | 24 | 1016.6 |
| 20260831070133 | 84 | 135 | 2.0 | 4.0 | 0.00 | 0.00 | 0.00 | 25 | 1016.4 |
| 20260831064650 | 83 | 153 | 3.0 | 6.0 | 0.00 | 0.00 | 0.00 | 26 | 1016.3 |
| 20260831063142 | 83 | 177 | 1.0 | 4.0 | 0.00 | 0.00 | 0.00 | 26 | 1016.3 |
| 20260831061655 | 86 | 204 | 1.0 | 10.0 | 0.00 | 0.00 | 0.00 | 24 | 1016.2 |
| 20260831060152 | 85 | 135 | 4.0 | 7.0 | 0.00 | 0.00 | 0.00 | 24 | 1016.1 |
| 20260831054622 | 85 | 152 | 2.0 | 6.0 | 0.00 | 0.00 | 0.00 | 24 | 1016.1 |
| 20260831053200 | 85 | 137 | 2.0 | 5.0 | 0.00 | 0.00 | 0.00 | 25 | 1016.1 |
| 20260831051629 | 84 | 178 | 0.0 | 2.0 | 0.00 | 0.00 | 0.00 | 26 | 1016.2 |
| 20260831050141 | 85 | 131 | 0.0 | 1.0 | 0.00 | 0.00 | 0.00 | 27 | 1016.4 |
| 20260831044636 | 85 | 81 | 0.0 | 0.0 | 0.00 | 0.00 | 0.00 | 26 | 1016.4 |
| 20260831043129 | 87 | 210 | 0.0 | 1.0 | 0.00 | 0.00 | 0.00 | 23 | 1016.3 |
| 20260831041624 | 88 | 99 | 0.0 | 1.0 | 0.00 | 0.00 | 0.00 | 22 | 1016.2 |
| 20260831040136 | 87 | 8 | 0.0 | 2.0 | 0.00 | 0.00 | 0.00 | 25 | 1016.2 |
| 20260831034634 | 88 | 145 | 0.0 | 4.0 | 0.00 | 0.00 | 0.00 | 22 | 1016.2 |
| 20260831033125 | 88 | 61 | 0.0 | 4.0 | 0.00 | 0.00 | 0.00 | 26 | 1016.1 |
| 20260831031637 | 87 | 130 | 0.0 | 2.0 | 0.00 | 0.00 | 0.00 | 28 | 1015.8 |
| 20260831030132 | 87 | 94 | 0.0 | 2.0 | 0.00 | 0.00 | 0.00 | 29 | 1015.3 |
| 20260831024624 | 86 | 81 | 0.0 | 0.0 | 0.00 | 0.00 | 0.00 | 33 | 1015.1 |
| 20260831023142 | 86 | 255 | 0.0 | 0.0 | 0.00 | 0.00 | 0.00 | 34 | 1015.0 |
| 20260831021633 | 87 | 255 | 0.0 | 0.0 | 0.00 | 0.00 | 0.00 | 29 | 1014.9 |
| 20260831020125 | 88 | 255 | 0.0 | 0.0 | 0.00 | 0.00 | 0.00 | 25 | 1014.8 |
| 20260831014640 | 89 | 255 | 0.0 | 0.0 | 0.00 | 0.00 | 0.00 | 24 | 1014.7 |
| 20260831013131 | 90 | 255 | 0.0 | 0.0 | 0.00 | 0.00 | 0.00 | 24 | 1014.4 |
| 20260831011627 | 92 | 255 | 0.0 | 0.0 | 0.00 | 0.00 | 0.00 | 23 | 1014.7 |
| 20260831010140 | 95 | 245 | 0.0 | 1.0 | 0.00 | 0.00 | 0.00 | 21 | 1014.7 |
| 20260831004632 | 97 | 242 | 0.0 | 1.0 | 0.00 | 0.00 | 0.00 | 18 | 1014.6 |
| 20260831003127 | 97 | 214 | 0.0 | 2.0 | 0.00 | 0.00 | 0.00 | 18 | 1014.7 |
| 20260831001637 | 97 | 305 | 0.0 | 1.0 | 0.00 | 0.00 | 0.00 | 16 | 1014.7 |
| 20260831000156 | 98 | 279 | 0.0 | 3.0 | 0.00 | 0.00 | 0.00 | 18 | 1014.7 |
| 20260830234626 | 99 | 282 | 0.0 | 2.0 | 0.00 | 0.00 | 0.00 | 16 | 1014.7 |
| 20260830233121 | 98 | 213 | 0.0 | 1.0 | 0.00 | 0.00 | 0.00 | 16 | 1014.9 |
| 20260830231634 | 97 | 290 | 0.0 | 4.0 | 0.00 | 0.00 | 0.00 | 17 | 1015.1 |
| 20260830230125 | 97 | 118 | 3.0 | 8.0 | 0.00 | 0.00 | 0.00 | 16 | 1015.1 |
| 20260830224701 | 97 | 305 | 2.0 | 7.0 | 0.00 | 0.00 | 0.00 | 16 | 1015.4 |
| 20260830223153 | 98 | 239 | 1.0 | 4.0 | 0.00 | 0.00 | 0.00 | 16 | 1015.5 |
| 20260830221627 | 97 | 360 | 5.0 | 8.0 | 0.00 | 0.00 | 0.00 | 17 | 1015.8 |
| 20260830220140 | 97 | 241 | 5.0 | 9.0 | 0.00 | 0.00 | 0.00 | 17 | 1015.8 |
| 20260830214653 | 97 | 249 | 4.0 | 8.0 | 0.00 | 0.00 | 0.00 | 18 | 1015.8 |
| 20260830213127 | 96 | 233 | 2.0 | 8.0 | 0.00 | 0.00 | 0.00 | 18 | 1016.0 |
| 20260830211637 | 96 | 304 | 2.0 | 7.0 | 0.00 | 0.00 | 0.00 | 19 | 1016.2 |
| 20260830210155 | 96 | 298 | 3.0 | 10.0 | 0.00 | 0.00 | 0.00 | 20 | 1016.4 |
| 20260830204626 | 96 | 317 | 4.0 | 9.0 | 0.00 | 0.00 | 0.00 | 20 | 1016.7 |
| 20260830203138 | 96 | 241 | 2.0 | 10.0 | 0.00 | 0.00 | 0.00 | 20 | 1016.9 |
| 20260830201633 | 96 | 306 | 6.0 | 10.0 | 0.00 | 0.00 | 0.00 | 20 | 1017.4 |
| 20260830200124 | 95 | 317 | 3.0 | 8.0 | 0.00 | 0.00 | 0.00 | 20 | 1017.7 |
| 20260830194620 | 95 | 304 | 4.0 | 7.0 | 0.00 | 0.00 | 0.00 | 21 | 1017.9 |
| 20260830193132 | 95 | 277 | 1.0 | 10.0 | 0.00 | 0.00 | 0.00 | 21 | 1018.2 |
| 20260830191627 | 93 | 260 | 1.0 | 6.0 | 0.00 | 0.00 | 0.00 | 22 | 1018.2 |
| 20260830190138 | 93 | 258 | 1.0 | 7.0 | 0.00 | 0.00 | 0.00 | 22 | 1018.6 |
| 20260830184630 | 93 | 49 | 1.0 | 4.0 | 0.00 | 0.00 | 0.00 | 22 | 1018.9 |
| 20260830183125 | 92 | 257 | 1.0 | 5.0 | 0.00 | 0.00 | 0.00 | 23 | 1019.1 |
| 20260830181636 | 92 | 227 | 1.0 | 7.0 | 0.00 | 0.00 | 0.00 | 24 | 1019.5 |
| 20260830180132 | 91 | 250 | 1.0 | 5.0 | 0.00 | 0.00 | 0.00 | 23 | 1019.8 |
| 20260830174645 | 90 | 156 | 1.0 | 5.0 | 0.00 | 0.00 | 0.00 | 25 | 1020.0 |
| 20260830173136 | 89 | 163 | 2.0 | 5.0 | 0.00 | 0.00 | 0.00 | 26 | 1020.1 |
| 20260830171632 | 89 | 236 | 3.0 | 6.0 | 0.00 | 0.00 | 0.00 | 25 | 1020.1 |
| 20260830170125 | 88 | 28 | 1.0 | 4.0 | 0.00 | 0.00 | 0.00 | 26 | 1020.2 |
| 20260830164639 | 88 | 246 | 2.0 | 5.0 | 0.00 | 0.00 | 0.00 | 26 | 1020.3 |
| 20260830163131 | 88 | 307 | 1.0 | 3.0 | 0.00 | 0.00 | 0.00 | 28 | 1020.3 |
| 20260830161626 | 87 | 248 | 1.0 | 3.0 | 0.00 | 0.00 | 0.00 | 28 | 1020.3 |
| 20260830160139 | 86 | 250 | 1.0 | 5.0 | 0.00 | 0.00 | 0.00 | 30 | 1020.3 |
| 20260830154650 | 85 | 84 | 0.0 | 1.0 | 0.00 | 0.00 | 0.00 | 32 | 1020.4 |
| 20260830153124 | 83 | 352 | 0.0 | 1.0 | 0.00 | 0.00 | 0.00 | 32 | 1020.5 |
| 20260830151636 | 81 | 301 | 0.0 | 1.0 | 0.00 | 0.00 | 0.00 | 35 | 1020.6 |
| 20260830150131 | 80 | 277 | 1.0 | 3.0 | 0.00 | 0.00 | 0.00 | 37 | 1020.6 |
| 20260830144623 | 79 | 259 | 1.0 | 3.0 | 0.00 | 0.00 | 0.00 | 38 | 1020.6 |
| 20260830143201 | 77 | 241 | 0.0 | 1.0 | 0.00 | 0.00 | 0.00 | 42 | 1020.4 |
| 20260830141630 | 76 | 202 | 0.0 | 0.0 | 0.00 | 0.00 | 0.00 | 44 | 1020.2 |